{"data":{"norad_id":55420,"epoch":"2026-09-20T22:00:03.000096Z","epoch_age_seconds":60704,"freshness":"FRESH","line1":"1 55420U 23014AF  26263.91670139  .00120367  00000+0  84203-2 0  9998","line2":"2 55420  69.9999 272.1979 0005155 298.4911  25.5444 15.04585420  5762","mean_motion":15.0458542,"eccentricity":0.0005155,"inclination_deg":69.9999,"raan_deg":272.1979,"arg_perigee_deg":298.4911,"mean_anomaly_deg":25.5444,"bstar":0.0084203,"rev_number":576,"period_min":95.707427498533,"perigee_km":549.20568595175,"apogee_km":556.35145990744,"semimajor_km":6930.9155729296,"source":"CELESTRAK","updated_at":"2026-09-21T09:00:33.219452Z"}}